[[{"header":{"parameterUnit":"m.s-1","parameterCategory":1,"la1":30.2991,"la2":30.254,"lo1":-89.0895,"lo2":-89.0444,"dy":0.0017,"dx":0.0017,"nx":28,"ny":28,"refTime":"2025-06-13T21:00:00:Z","depth":0,"parameterNumber":2,"parameterNumberName":"U-component_of_WINDS"},"data":[0,0,0,0,0,0,0,0,0,0,0,0,0,0,0,0,0,0,0,0,0,0,0,0,0,0,0,0,0,0,0,0,0,0,0,0,0,0,0,0,0,0,0,0,0,0,0,0,0,0,0,0,0,0,0,0,0,0,3.0482,3.0484,0,3.0594,3.0595,3.0596,3.0595,3.0593,3.0592,3.059,3.0704,3.0708,3.0713,0,0,0,0,0,0,0,0,0,0,0,0,0,3.0266,3.027,3.0482,3.0484,3.0485,3.0593,3.0595,3.0597,3.0595,3.0593,3.0591,3.059,3.0702,3.0708,3.0713,0,0,0,0,0,0,0,0,0,0,0,0,0,3.0367,3.0271,3.0482,3.0497,3.05,3.0593,3.0595,3.0597,3.0595,3.0593,3.0591,3.0589,3.0701,3.0707,3.0714,3.0799,0,0,3.0734,3.0737,0,0,0,0,0,0,0,0,3.0361,3.0375,3.0494,3.0496,3.0499,3.0578,3.056,3.0665,3.0596,3.0559,3.059,3.0588,3.0664,3.0673,3.0699,3.0804,3.0809,3.0734,3.0738,3.0741,3.0743,0,0,0,0,0,0,0,3.0354,3.037,3.0526,3.0495,3.0499,3.0498,3.051,3.058,3.0623,3.0562,3.0562,3.0576,3.0665,3.0693,3.0702,3.0811,3.0734,3.074,3.0744,3.0747,3.0988,3.099,0,0,0,0,0,0,3.0344,3.0364,3.0523,3.053,3.0423,3.0504,3.0517,3.0555,3.0622,3.063,3.0577,3.0575,3.0683,3.0694,3.0706,3.0807,3.0741,3.0747,3.0751,3.0986,3.0989,3.0991,0,0,0,0,0,0,3.0339,3.0358,3.0518,3.0447,3.0467,3.051,3.0553,3.0558,3.0586,3.0633,3.0641,3.0598,3.0681,3.0696,3.0775,3.0811,3.075,3.0756,3.0983,3.0986,3.099,3.1013,0,0,0,0,0,0,3.0333,3.0357,3.039,3.0448,3.0471,3.0586,3.0555,3.0562,3.0598,3.0596,3.0655,3.0662,3.0681,3.0765,3.0782,3.0819,3.0762,3.098,3.0984,3.0989,3.1009,3.1017,3.1023,0,0,0,0,0,3.0326,3.0393,3.0392,3.0411,3.0514,3.0589,3.0602,3.0622,3.0601,3.0634,3.0664,3.066,3.0805,3.0773,3.0792,3.0832,3.0977,3.0983,3.0988,3.1005,3.1015,3.1023,0,0,0,0,0,0,3.0339,3.0401,3.04,3.0488,3.0533,3.0588,3.0631,3.0632,3.0683,3.0679,3.0702,3.0715,3.0793,3.0821,3.0784,3.0916,3.0888,3.0898,3.0895,3.0905,3.0912,3.0902,3.0767,0,0,0,0,0,3.0352,3.0408,3.0459,3.0531,3.0554,3.0588,3.0622,3.0633,3.068,3.0699,3.0735,3.0781,3.0836,3.0872,3.0926,3.1013,3.1024,3.105,3.1057,3.1063,3.107,3.1115,3.1126,3.1009,3.1009,3.1009,0,0,3.0379,3.042,3.0454,3.0535,3.0571,3.0627,3.0604,3.0666,3.0707,3.0709,3.0784,3.0812,3.0864,3.0947,3.0985,3.0972,3.1105,3.107,3.1074,3.1078,3.1122,3.1133,3.1142,3.1013,3.1012,3.1012,0,0,3.0458,3.0495,3.0558,3.0595,3.0649,3.0672,3.0687,3.0742,3.076,3.0836,3.0837,3.0887,3.0983,3.1019,3.105,3.114,3.1138,3.1157,3.1194,3.1238,3.1247,3.1255,3.1284,3.1295,3.1165,3.1165,3.1165,0,3.0485,3.057,3.0591,3.0651,3.0686,3.0689,3.0752,3.0786,3.0856,3.0879,3.0864,3.0982,3.1018,3.1107,3.1129,3.1155,3.1171,3.115,3.1244,3.1252,3.126,3.1288,3.13,3.1166,3.1166,3.1166,3.1166,0,3.0599,3.0658,3.0703,3.0768,3.0808,3.087,3.0898,3.0936,3.0943,3.0967,3.1043,3.1086,3.1147,3.117,3.1178,3.126,3.125,3.1239,3.1211,3.1273,3.1299,3.1311,3.1169,3.1168,3.1168,3.1167,0,0,3.0689,3.0764,3.078,3.0808,3.0868,3.0914,3.0975,3.1034,3.1065,3.1112,3.1162,3.1242,3.1232,3.1267,3.128,3.1319,3.1383,3.1303,3.1305,3.1314,3.1472,3.1478,3.149,3.1383,3.1385,3.1387,3.1467,0,3.0771,3.088,3.0899,3.0993,3.1046,3.1049,3.1102,3.1144,3.1167,3.1215,3.1241,3.1296,3.128,3.13,3.1339,3.1367,3.1415,3.1362,3.1428,3.143,3.1412,3.1505,3.1511,3.1585,3.1478,3.148,3.1481,0,3.0882,3.0931,3.103,3.108,3.1103,3.115,3.1205,3.1251,3.1298,3.1312,3.135,3.1358,3.1419,3.139,3.1474,3.1437,3.1466,3.1483,3.1487,3.1492,3.1458,3.151,3.1609,3.1619,3.1498,3.1497,3.1496,0,3.0934,3.1025,3.1095,3.112,3.1181,3.1213,3.124,3.1285,3.1318,3.1366,3.1388,3.1443,3.1472,3.1514,3.1535,3.1512,3.1616,3.159,3.1628,3.1627,3.1648,3.1646,3.1751,3.1671,3.167,3.167,3.167,0,3.1023,3.1082,3.1119,3.1162,3.1228,3.1249,3.1314,3.134,3.1379,3.1426,3.1433,3.1477,3.1504,3.1551,3.1569,3.1634,3.1648,3.166,3.1663,3.1658,3.1656,3.1675,3.1669,3.1673,3.1673,3.1672,3.1671,0,3.1091,3.1118,3.1194,3.1245,3.1259,3.1306,3.1349,3.139,3.1413,3.1472,3.1487,3.1523,3.1578,3.1604,3.1674,3.1685,3.1759,3.176,3.1743,3.1743,3.1779,3.1774,3.1898,3.1914,3.1825,3.1826,3.1827,0,3.1144,3.119,3.1246,3.1277,3.1305,3.1356,3.139,3.1413,3.1448,3.1503,3.1537,3.1593,3.1638,3.1727,3.1759,3.1811,3.1812,3.1852,3.182,3.1812,3.1809,3.1805,3.1809,3.1857,3.1858,3.1858,3.1859,0,3.1236,3.1246,3.1295,3.1348,3.1388,3.1431,3.1473,3.1499,3.1527,3.1566,3.1623,3.1658,3.1728,3.1783,3.1837,3.1864,3.1865,3.1869,3.188,3.1874,3.1861,3.1865,3.1755,3.1866,3.1865,3.1864,3.1864,3.1864,3.1297,3.1336,3.138,3.1434,3.1468,3.1506,3.1546,3.1574,3.1621,3.168,3.169,3.175,3.1793,3.1866,3.1895,3.1941,3.1931,3.1948,3.1952,3.1955,3.1956,3.1855,3.1951,3.1951,3.1951,3.1951,3.1951,0,3.1386,3.1414,3.1463,3.1521,3.1562,3.1561,3.1606,3.1641,3.1693,3.1734,3.1778,3.1842,3.1894,3.193,3.1983,3.2013,3.2015,3.2026,3.2022,3.2028,3.1963,3.1946,3.2023,3.2023,3.2023,3.2023,3.2023,3.2023,3.1437,3.1503,3.1518,3.16,3.1628,3.1686,3.1712,3.1747,3.1779,3.185,3.1893,3.1916,3.1954,3.2009,3.2057,3.2066,3.2083,3.2094,3.2103,3.2041,3.2033,3.2026,3.201,3.2099,3.2099,3.2164,3.2164,3.2165]},{"header":{"parameterUnit":"m.s-1","parameterCategory":1,"la1":30.2991,"la2":30.254,"lo1":-89.0895,"lo2":-89.0444,"dy":0.0017,"dx":0.0017,"nx":28,"ny":28,"refTime":"2025-06-13T21:00:00:Z","depth":0,"parameterNumber":3,"parameterNumberName":"V-component_of_WINDS"},"data":[0,0,0,0,0,0,0,0,0,0,0,0,0,0,0,0,0,0,0,0,0,0,0,0,0,0,0,0,0,0,0,0,0,0,0,0,0,0,0,0,0,0,0,0,0,0,0,0,0,0,0,0,0,0,0,0,0,0,1.2748,1.2748,0,1.2758,1.2758,1.2758,1.2704,1.2702,1.2701,1.2699,1.2713,1.2715,1.2717,0,0,0,0,0,0,0,0,0,0,0,0,0,1.2682,1.2684,1.2747,1.2748,1.2748,1.2758,1.2758,1.2758,1.2704,1.2702,1.27,1.2698,1.2712,1.2714,1.2717,0,0,0,0,0,0,0,0,0,0,0,0,0,1.2704,1.2684,1.2747,1.2722,1.272,1.2758,1.2758,1.2758,1.2704,1.2702,1.27,1.2697,1.2712,1.2714,1.2717,1.2781,0,0,1.2725,1.2727,0,0,0,0,0,0,0,0,1.2703,1.2706,1.2725,1.2724,1.2721,1.2727,1.274,1.2766,1.2705,1.271,1.2699,1.2696,1.272,1.2722,1.2729,1.2782,1.2783,1.2726,1.2727,1.2729,1.2729,0,0,0,0,0,0,0,1.2701,1.2705,1.2752,1.2726,1.2723,1.271,1.2711,1.2745,1.2728,1.271,1.2706,1.2708,1.2718,1.2726,1.2729,1.2783,1.2726,1.2728,1.273,1.2731,1.2888,1.289,0,0,0,0,0,0,1.2703,1.2705,1.2751,1.2752,1.2706,1.2714,1.2714,1.2728,1.2728,1.2725,1.271,1.2705,1.2723,1.2726,1.2729,1.2804,1.2728,1.2731,1.2733,1.2886,1.2889,1.2891,0,0,0,0,0,0,1.2702,1.2707,1.2751,1.2727,1.2732,1.2717,1.2733,1.2729,1.2737,1.2728,1.2725,1.2721,1.2721,1.2725,1.2768,1.2804,1.2732,1.2735,1.2883,1.2886,1.289,1.2955,0,0,0,0,0,0,1.27,1.2707,1.2731,1.2728,1.2733,1.279,1.2735,1.2731,1.2742,1.2736,1.2737,1.2735,1.272,1.2764,1.2771,1.2806,1.2737,1.2879,1.2884,1.2889,1.2949,1.296,1.2969,0,0,0,0,0,1.2698,1.275,1.2733,1.2739,1.2763,1.2792,1.2795,1.2775,1.2745,1.2769,1.2763,1.2735,1.2798,1.2769,1.2776,1.2813,1.2877,1.2883,1.2888,1.2945,1.2958,1.2969,0,0,0,0,0,0,1.2759,1.2749,1.273,1.2783,1.2788,1.2782,1.2813,1.2789,1.2804,1.2799,1.2773,1.2774,1.2822,1.2821,1.2789,1.2875,1.2833,1.284,1.2873,1.2886,1.2896,1.2895,1.2739,0,0,0,0,0,1.2779,1.2802,1.2793,1.284,1.2844,1.2828,1.284,1.2823,1.2829,1.2831,1.2828,1.2835,1.2856,1.2871,1.289,1.2948,1.2948,1.2977,1.2987,1.2995,1.3002,1.3033,1.3046,1.291,1.291,1.291,0,0,1.282,1.2817,1.2834,1.2852,1.2855,1.288,1.283,1.286,1.2878,1.2836,1.2876,1.2874,1.288,1.2931,1.2953,1.2932,1.3039,1.3003,1.3009,1.3012,1.304,1.3053,1.3064,1.2914,1.2913,1.2913,0,0,1.2907,1.2908,1.2947,1.295,1.2954,1.2942,1.2952,1.2949,1.2946,1.2985,1.2953,1.2976,1.3013,1.3018,1.3026,1.3114,1.3089,1.3121,1.3174,1.3204,1.3215,1.3224,1.3255,1.3267,1.3127,1.3128,1.3128,0,1.2958,1.2995,1.297,1.3001,1.301,1.2971,1.3011,1.3015,1.3026,1.3033,1.3009,1.3054,1.3055,1.3107,1.3128,1.3135,1.3145,1.3121,1.3215,1.3224,1.3232,1.3262,1.3274,1.3131,1.3131,1.3131,1.313,0,1.3057,1.3083,1.3114,1.3123,1.3136,1.3171,1.3152,1.3168,1.315,1.3141,1.3182,1.3182,1.32,1.321,1.3194,1.326,1.3246,1.3219,1.3177,1.325,1.3277,1.3288,1.3137,1.3135,1.3134,1.3133,0,0,1.3185,1.3179,1.3191,1.3195,1.3195,1.3215,1.3248,1.3264,1.3278,1.3286,1.3314,1.3345,1.332,1.3328,1.3312,1.3338,1.3408,1.3307,1.3307,1.3326,1.348,1.3501,1.3514,1.3391,1.3393,1.3395,1.3479,0,1.3271,1.3327,1.3305,1.3363,1.3386,1.3349,1.3377,1.3381,1.3374,1.3393,1.3385,1.3408,1.3372,1.3377,1.3401,1.3394,1.3438,1.3388,1.3417,1.3418,1.3417,1.3529,1.3551,1.3631,1.349,1.3492,1.3493,0,1.3379,1.339,1.345,1.3445,1.3454,1.348,1.3493,1.3512,1.3515,1.3508,1.3517,1.3494,1.3527,1.3483,1.3528,1.3494,1.3505,1.3503,1.3506,1.3508,1.3461,1.3535,1.3656,1.3668,1.351,1.3508,1.3507,0,1.3466,1.3496,1.3536,1.354,1.3535,1.3555,1.3554,1.3555,1.3566,1.3577,1.3584,1.3599,1.3608,1.362,1.3602,1.3573,1.365,1.3605,1.3645,1.3646,1.3664,1.3663,1.379,1.367,1.367,1.367,1.3669,0,1.3565,1.3603,1.3575,1.3599,1.3641,1.3615,1.3657,1.3652,1.3653,1.3676,1.3645,1.3667,1.3642,1.3662,1.3649,1.3688,1.3692,1.3687,1.3683,1.369,1.3691,1.3698,1.3692,1.3673,1.3672,1.3672,1.3671,0,1.367,1.3653,1.3693,1.3685,1.3684,1.3715,1.3708,1.3731,1.372,1.375,1.3755,1.3739,1.3761,1.3744,1.3767,1.3757,1.3809,1.3797,1.3808,1.3805,1.3846,1.3842,1.3981,1.3998,1.3867,1.3869,1.387,0,1.3735,1.3763,1.3757,1.377,1.3771,1.3791,1.3802,1.3777,1.379,1.3795,1.3817,1.3836,1.385,1.3887,1.3878,1.3894,1.3883,1.393,1.3885,1.3891,1.3884,1.3882,1.3885,1.394,1.3941,1.3942,1.3943,0,1.3851,1.384,1.3856,1.3868,1.3881,1.389,1.3897,1.3909,1.3884,1.39,1.3921,1.3932,1.3953,1.3973,1.3986,1.3985,1.3961,1.3957,1.3967,1.3976,1.3981,1.3979,1.3833,1.3955,1.3953,1.3953,1.3952,1.3952,1.3938,1.3961,1.396,1.3978,1.398,1.3987,1.4007,1.3998,1.4015,1.403,1.4015,1.4041,1.4043,1.4057,1.406,1.408,1.4061,1.4076,1.408,1.4084,1.409,1.3977,1.4083,1.4082,1.4082,1.4082,1.4081,0,1.4052,1.4049,1.4066,1.4076,1.409,1.4064,1.4069,1.4083,1.4106,1.4109,1.4123,1.4148,1.4166,1.4158,1.4174,1.4191,1.418,1.4196,1.4195,1.4196,1.4106,1.4096,1.4205,1.4205,1.4205,1.4205,1.4205,1.4205,1.4113,1.4151,1.414,1.4178,1.4175,1.4199,1.4205,1.4211,1.4213,1.4241,1.4256,1.4249,1.4248,1.4264,1.4279,1.4276,1.4284,1.4304,1.4298,1.4214,1.4202,1.419,1.4181,1.4306,1.4306,1.4385,1.4386,1.4387]}]]